Lapeer, MI

12:26 AM EDT on July 27, 2017 (GMT -0400)
Lapeer

Weather History for KD95 - September, 2012

Change the Weather History Date:

Sunday, September 23, 2012

  Actual Average (KFNT) Record (KFNT)
Temperature  
Mean Temperature 46 °F -  
Max Temperature 54 °F 65 °F 89 °F (1936)
Min Temperature 38 °F 45 °F 27 °F (1995)
Degree Days  
Heating Degree Days 19    
Moisture  
Dew Point 40 °F    
Average Humidity 79    
Maximum Humidity 100    
Minimum Humidity 51    
Precipitation  
Precipitation 0.02 in - - ()
Sea Level Pressure  
Sea Level Pressure 30.13 in    
Wind  
Wind Speed 5 mph ()    
Max Wind Speed 15 mph    
Max Gust Speed 24 mph    
Visibility 9.9 miles    
Events Rain    
Averages and records for this station are not official NWS values.
T = Trace of Precipitation, MM = Missing Value Source: Averaged Metar Reports

Daily Weather History Graph

Daily Weather History Graph

Search for Another Location

Airport or City:

Trip Planner

Search our weather history database for the weather conditions in past years. The results will help you decide how hot, cold, wet, or windy it might be!

Date:

Astronomy

Sep. 23, 2012 Rise Set
Actual Time 7:22 AM EDT 7:27 PM EDT
Civil Twilight 6:53 AM EDT 7:56 PM EDT
Nautical Twilight 6:20 AM EDT 8:29 PM EDT
Astronomical Twilight 5:46 AM EDT 9:02 PM EDT
Moon 3:36 PM EDT (9/23) 12:24 AM EDT (9/23)
Length of Visible Light 13h 02m
Length of Day
12h 05m
First Quarter, 60% of the Moon is Illuminated
Sep 23
First Quarter
Sep 29
Full
Oct 8
Last Quarter
Oct 15
New
Oct 21
First Quarter

Hourly Weather History & Observations

Time (EDT) Temp. Windchill Dew Point Humidity Pressure Visibility Wind Dir Wind Speed Gust Speed Precip Events Conditions
12:13 AM 43.7 °F 42.1 °F 43.2 °F 98% 30.05 in 10.0 mi West 3.5 mph - N/A   Clear
12:33 AM 43.2 °F 41.5 °F 43.2 °F 100% 30.06 in 10.0 mi West 3.5 mph - N/A   Clear
12:54 AM 42.8 °F 40.1 °F 42.8 °F 100% 30.06 in 10.0 mi WSW 4.6 mph - N/A   Clear
1:13 AM 42.8 °F 40.1 °F 42.8 °F 100% 30.06 in 10.0 mi SW 4.6 mph - N/A   Scattered Clouds
1:33 AM 43.7 °F 41.1 °F 43.7 °F 100% 30.06 in 10.0 mi West 4.6 mph - N/A   Mostly Cloudy
1:54 AM 43.5 °F 41.9 °F 43.3 °F 99% 30.07 in 10.0 mi West 3.5 mph - N/A   Mostly Cloudy
2:13 AM 43.3 °F 41.7 °F 43.3 °F 100% 30.07 in 10.0 mi West 3.5 mph - N/A   Mostly Cloudy
2:33 AM 43.7 °F 42.1 °F 43.7 °F 100% 30.08 in 10.0 mi WSW 3.5 mph - N/A   Overcast
2:54 AM 44.4 °F 42.0 °F 43.9 °F 98% 30.08 in 10.0 mi West 4.6 mph - N/A   Overcast
3:13 AM 44.2 °F 41.8 °F 43.7 °F 98% 30.08 in 10.0 mi West 4.6 mph - N/A   Overcast
3:33 AM 43.7 °F 41.1 °F 43.2 °F 98% 30.08 in 10.0 mi West 4.6 mph - N/A   Scattered Clouds
3:54 AM 43.0 °F 39.5 °F 43.0 °F 100% 30.08 in 10.0 mi West 5.8 mph - N/A   Scattered Clouds
4:13 AM 42.8 °F 40.1 °F 42.8 °F 100% 30.08 in 10.0 mi WSW 4.6 mph - N/A   Clear
4:33 AM 42.1 °F 39.2 °F 42.1 °F 100% 30.10 in 10.0 mi WSW 4.6 mph - N/A   Clear
4:54 AM 41.2 °F 39.2 °F 41.2 °F 100% 30.10 in 10.0 mi WSW 3.5 mph - N/A   Clear
5:13 AM 41.0 °F 38.0 °F 41.0 °F 100% 30.10 in 10.0 mi SW 4.6 mph - N/A   Clear
5:33 AM 40.3 °F 38.2 °F 40.3 °F 100% 30.10 in 10.0 mi SW 3.5 mph - N/A   Clear
5:54 AM 39.4 °F 37.2 °F 39.4 °F 100% 30.10 in 10.0 mi WSW 3.5 mph - N/A   Clear
6:13 AM 39.2 °F 37.0 °F 39.2 °F 100% 30.11 in 10.0 mi SW 3.5 mph - N/A   Clear
6:33 AM 38.8 °F 36.5 °F 38.8 °F 100% 30.11 in 10.0 mi WSW 3.5 mph - N/A   Clear
6:54 AM 39.9 °F 36.7 °F 39.9 °F 100% 30.11 in 10.0 mi SW 4.6 mph - N/A   Clear
7:13 AM 40.3 °F 38.2 °F 40.3 °F 100% 30.12 in 10.0 mi WSW 3.5 mph - N/A   Clear
7:33 AM 40.5 °F 37.3 °F 40.5 °F 100% 30.12 in 10.0 mi West 4.6 mph - N/A   Clear
7:54 AM 41.0 °F 37.1 °F 41.0 °F 100% 30.12 in 10.0 mi West 5.8 mph - N/A   Clear
8:13 AM 42.1 °F 38.4 °F 41.9 °F 99% 30.12 in 10.0 mi West 5.8 mph - N/A   Clear
8:33 AM 43.5 °F 40.9 °F 42.6 °F 97% 30.13 in 10.0 mi West 4.6 mph - N/A   Clear
8:54 AM 44.8 °F 40.4 °F 42.6 °F 92% 30.14 in 10.0 mi West 8.1 mph - N/A   Clear
9:13 AM 46.2 °F 43.3 °F 42.8 °F 88% 30.14 in 10.0 mi West 5.8 mph - N/A   Clear
9:33 AM 47.8 °F - 40.1 °F 75% 30.15 in 10.0 mi West 11.5 mph - N/A   Clear
9:54 AM 48.9 °F - 39.0 °F 69% 30.15 in 10.0 mi WNW 10.4 mph - N/A   Clear
10:13 AM 49.6 °F - 38.5 °F 65% 30.15 in 10.0 mi WNW 10.4 mph 16.1 mph N/A   Scattered Clouds
10:33 AM 50.9 °F - 38.3 °F 62% 30.15 in 10.0 mi WNW 10.4 mph 16.1 mph N/A   Scattered Clouds
10:54 AM 51.3 °F - 38.1 °F 61% 30.15 in 10.0 mi West 10.4 mph 17.3 mph N/A   Mostly Cloudy
11:13 AM 52.0 °F - 37.8 °F 58% 30.15 in 10.0 mi NW 12.7 mph 17.3 mph N/A   Mostly Cloudy
11:34 AM 52.2 °F - 37.0 °F 56% 30.15 in 10.0 mi West 10.4 mph 18.4 mph N/A   Mostly Cloudy
11:53 AM 53.4 °F - 37.6 °F 55% 30.15 in 10.0 mi WNW 8.1 mph 17.3 mph N/A   Mostly Cloudy
12:13 PM 51.6 °F - 35.4 °F 54% 30.15 in 10.0 mi WNW 9.2 mph 17.3 mph N/A   Overcast
12:34 PM 52.7 °F - 35.6 °F 52% 30.15 in 10.0 mi West 15.0 mph 20.7 mph N/A   Mostly Cloudy
12:53 PM 51.3 °F - 36.5 °F 57% 30.15 in 10.0 mi West 9.2 mph - N/A   Mostly Cloudy
1:13 PM 48.2 °F - 39.6 °F 72% 30.16 in 5.0 mi WNW 10.4 mph 24.2 mph 0.01 in Rain Heavy Rain
1:34 PM 46.6 °F - 42.1 °F 84% 30.16 in 10.0 mi West 4.6 mph - 0.02 in   Overcast
1:53 PM 48.4 °F - 41.0 °F 76% 30.15 in 10.0 mi West 5.8 mph - 0.02 in   Overcast
2:13 PM 52.3 °F - 42.8 °F 70% 30.15 in 10.0 mi West 6.9 mph - N/A   Overcast
2:34 PM 50.2 °F - 40.8 °F 70% 30.15 in 10.0 mi West 4.6 mph - N/A Rain Light Rain
2:53 PM 54.0 °F - 37.9 °F 55% 30.14 in 10.0 mi WSW 8.1 mph - N/A   Mostly Cloudy
3:13 PM 54.3 °F - 37.0 °F 52% 30.13 in 10.0 mi WNW 5.8 mph - N/A   Mostly Cloudy
3:34 PM 52.5 °F - 38.7 °F 59% 30.14 in 10.0 mi WNW 5.8 mph - N/A   Overcast
3:53 PM 54.7 °F - 36.9 °F 51% 30.14 in 10.0 mi WNW 9.2 mph - N/A   Overcast
4:13 PM 53.8 °F - 36.0 °F 51% 30.14 in 10.0 mi West 8.1 mph - N/A   Overcast
4:34 PM 53.1 °F - 36.7 °F 54% 30.14 in 10.0 mi West 12.7 mph 21.9 mph N/A   Overcast
4:53 PM 52.0 °F - 38.3 °F 60% 30.14 in 10.0 mi WNW 4.6 mph 9.2 mph N/A   Overcast
5:13 PM 52.7 °F - 37.9 °F 57% 30.14 in 10.0 mi WNW 6.9 mph - N/A   Overcast
5:34 PM 52.2 °F - 37.9 °F 58% 30.15 in 10.0 mi West 8.1 mph 17.3 mph N/A   Overcast
5:53 PM 51.3 °F - 38.3 °F 61% 30.15 in 10.0 mi West 8.1 mph - N/A   Overcast
6:13 PM 52.9 °F - 38.5 °F 58% 30.15 in 10.0 mi West 5.8 mph - N/A   Overcast
6:34 PM 50.9 °F - 37.4 °F 60% 30.15 in 10.0 mi WNW 9.2 mph - N/A   Overcast
6:53 PM 50.0 °F - 38.5 °F 65% 30.15 in 10.0 mi West 8.1 mph - N/A   Overcast
7:13 PM 48.7 °F - 37.9 °F 66% 30.16 in 10.0 mi West 5.8 mph - N/A   Overcast
7:34 PM 48.2 °F - 37.8 °F 67% 30.16 in 10.0 mi West 3.5 mph - N/A   Mostly Cloudy
7:53 PM 47.8 °F - 37.9 °F 69% 30.16 in 10.0 mi WNW 4.6 mph - N/A   Overcast
8:14 PM 47.5 °F - 38.7 °F 71% 30.17 in 10.0 mi West 5.8 mph - N/A   Overcast
8:33 PM 47.5 °F - 39.0 °F 72% 30.17 in 10.0 mi West 3.5 mph - N/A   Overcast
8:53 PM 47.3 °F - 39.6 °F 74% 30.18 in 10.0 mi West 3.5 mph - N/A   Overcast
9:14 PM 47.3 °F - 39.0 °F 73% 30.18 in 10.0 mi WNW 6.9 mph - N/A   Overcast
9:33 PM 46.6 °F - 38.8 °F 74% 30.18 in 10.0 mi WNW 6.9 mph - N/A   Overcast
9:53 PM 45.9 °F 43.6 °F 38.3 °F 75% 30.18 in 10.0 mi West 4.6 mph - N/A   Mostly Cloudy
10:14 PM 45.7 °F 43.4 °F 38.7 °F 76% 30.19 in 10.0 mi West 4.6 mph - N/A   Mostly Cloudy
10:33 PM 45.7 °F 43.4 °F 39.0 °F 78% 30.19 in 10.0 mi West 4.6 mph - N/A   Overcast
10:53 PM 45.7 °F 43.4 °F 39.0 °F 78% 30.19 in 10.0 mi West 4.6 mph - N/A   Overcast
11:14 PM 44.8 °F 43.3 °F 38.8 °F 80% 30.19 in 10.0 mi West 3.5 mph - N/A   Overcast
11:33 PM 43.5 °F 41.9 °F 38.7 °F 83% 30.19 in 10.0 mi West 3.5 mph - N/A   Scattered Clouds
11:53 PM 42.8 °F 41.1 °F 38.5 °F 85% 30.19 in 10.0 mi WSW 3.5 mph - N/A   Clear